Location: Newark
(40.3667°N, 3.7500°W)
Time: 10:53:40
(UTC+00:00)

LightSail 2 - Visible Passes

Search period start: 19 September 2019 00:00
Search period end: 29 September 2019 00:00
Orbit: 701 x 731 km, 24.0° (Epoch: 18 September)

Date Brightness Start Highest point End Pass type
(mag) Time Alt. Az. Time Alt. Az. Time Alt. Az.
22 Sep 7.5 05:31:27 10° S 05:32:46 11° S 05:34:05 10° SSE visible
24 Sep 7.4 05:21:37 10° SSW 05:23:29 12° S 05:25:22 10° SSE visible
25 Sep 7.3 04:25:30 11° S 04:26:32 11° S 04:28:11 10° SSE visible
26 Sep 7.3 05:12:31 10° SSW 05:14:13 12° S 05:15:55 10° SSE visible
27 Sep 7.3 04:17:15 12° S 04:17:15 12° S 04:19:08 10° SSE visible
